This is the latest recevied weather packets stored in our database for station/object WD7OO. If no packets are shown the sender has not sent any weather packets the latest 10 day(s).
| Time | Temp. | Humidity | Pressure | Rain* | Wind** | Luminosity | Snow |
|---|---|---|---|---|---|---|---|
| 1777818680 | 12.78° C | 50% | 1015.2 hPa | 0 mm | - | 388 W/m² | - |
| 1777818377 | 12.78° C | 49% | 1015.4 hPa | 0 mm | - | 351 W/m² | - |
| 1777817770 | 12.78° C | 50% | 1015.3 hPa | 0 mm | - | 397 W/m² | - |
| 1777817468 | 12.78° C | 51% | 1015.2 hPa | 0 mm | - | 381 W/m² | - |
| 1777816861 | 12.22° C | 52% | 1015.6 hPa | 0 mm | - | 535 W/m² | - |
| 1777815953 | 11.11° C | 54% | 1015.5 hPa | 0 mm | - | 488 W/m² | - |
| 1777813831 | 10° C | 53% | 1015.9 hPa | 0 mm | - | 129 W/m² | - |
| 1777810804 | 8.89° C | 56% | 1015.5 hPa | 0 mm | - | 103 W/m² | - |
| 1777809592 | 8.33° C | 60% | 1015.7 hPa | 0 mm | - | 93 W/m² | - |
| 1777808684 | 7.78° C | 60% | 1015.4 hPa | 0 mm | - | 42 W/m² | - |
| 1777804443 | 6.11° C | 64% | 1015.6 hPa | 0 mm | - | 0 W/m² | - |
| 1777803532 | 5.56° C | 64% | 1015.3 hPa | 0 mm | - | 0 W/m² | - |
| 1777802927 | 5.56° C | 64% | 1015.2 hPa | 0 mm | - | 0 W/m² | - |
| 1777802625 | 5.56° C | 65% | 1015.3 hPa | 0 mm | - | 0 W/m² | - |
| 1777801718 | 5° C | 68% | 1015.4 hPa | 0 mm | - | 0 W/m² | - |
| 1777801112 | 4.44° C | 70% | 1015.5 hPa | 0 mm | - | 0 W/m² | - |
| 1777800809 | 4.44° C | 71% | 1015.6 hPa | 0 mm | - | 0 W/m² | - |
| 1777800508 | 4.44° C | 71% | 1015.6 hPa | 0 mm | - | 0 W/m² | - |
| 1777800206 | 4.44° C | 72% | 1015.7 hPa | 0 mm | - | 0 W/m² | - |
| 1777799906 | 4.44° C | 72% | 1015.5 hPa | 0 mm | - | 0 W/m² | - |
| 1777799604 | 3.89° C | 73% | 1015.7 hPa | 0 mm | - | 0 W/m² | - |
| 1777799300 | 3.89° C | 76% | 1015.6 hPa | 0 mm | - | 0 W/m² | - |
| 1777798995 | 3.89° C | 75% | 1015.6 hPa | 0 mm | - | 0 W/m² | - |
| 1777798691 | 3.33° C | 76% | 1015.7 hPa | 0 mm | - | 0 W/m² | - |
| 1777798085 | 3.89° C | 76% | 1015.8 hPa | 0 mm | - | 0 W/m² | - |
* Rain latest hour (hover to see other rain measurements)
** Current wind speed in m/s (hover to see current wind gust speed)